Location: Amsterdam
(30.7274°N, 84.4357°W)
Time: 18:19:31
(UTC+00:00)

Tiros 1 - Pass Details

Date: 20 February 2026
Orbit: 618 x 649 km, 48.4° (Epoch: 10 March)

Event Time Altitude Azimuth Distance (km) Brightness Sun altitude
Rises 13:51:45 0° 269° (W) 2,916 10.0 19.1°
Reaches altitude 10° 13:54:39 10° 287° (WNW) 2,003 9.2 19.7°
Maximum altitude 13:57:58 19° 334° (NNW) 1,486 8.7 20.3°
Drops below altitude 10° 14:01:16 10° 20° (NNE) 1,993 9.7 21.0°
Sets 14:04:09 0° 38° (NE) 2,896 10.6 21.5°
